DW8155 Weather Reports


time (UTC)temp
F
wind
direction
speed
knots
gust
knots
rain 1hr
in
rain 24hr
in
rain mn
in
humidity
%
barometer
mb
20260508054559 44 233 0.0 0.9 0.00 0.00 0.00 80 1013.3
20260508053120 44 233 0.0 1.7 0.00 0.00 0.00 80 1013.5
20260508051556 44 233 1.7 3.5 0.00 0.00 0.00 80 1013.8
20260508050055 44 325 0.0 1.7 0.00 0.00 0.00 79 1013.6
20260508044557 44 327 0.0 0.9 0.00 0.00 0.00 78 1013.6
20260508043100 43 327 0.9 1.7 0.00 0.00 0.00 78 1013.6
20260508041612 43 327 0.0 0.0 0.00 0.00 0.00 80 1013.3
20260508040105 42 327 0.0 0.0 0.00 0.00 0.00 77 1013.4
20260508034547 43 327 0.0 0.0 0.00 0.00 0.00 77 1013.3
20260508033047 43 327 0.0 0.9 0.00 0.00 0.00 77 1013.3
20260508031546 43 327 0.0 0.9 0.00 0.00 0.00 77 1013.2
20260508030045 43 327 0.0 0.0 0.00 0.00 0.00 74 1013.4
20260508024550 43 327 0.0 0.0 0.00 0.00 0.00 74 1013.4
20260508023044 44 327 0.0 0.0 0.00 0.00 0.00 73 1013.3
20260508021544 45 327 0.0 1.7 0.00 0.00 0.00 71 1013.3
20260508020048 45 327 0.0 0.0 0.00 0.00 0.00 70 1013.2
20260508014543 46 327 0.0 0.0 0.00 0.00 0.00 68 1013.1
20260508013043 47 327 0.0 0.0 0.00 0.00 0.00 68 1013.0
20260508011551 48 327 0.0 0.0 0.00 0.00 0.00 67 1012.9
20260508010041 49 327 0.0 1.7 0.00 0.00 0.00 63 1012.8
20260508004544 50 328 0.9 4.3 0.00 0.00 0.00 60 1012.7
20260508003041 51 315 2.6 4.3 0.00 0.00 0.00 59 1012.5
20260508001542 52 319 1.7 3.5 0.00 0.00 0.00 58 1012.3
20260508000039 53 306 0.9 4.3 0.00 0.00 0.00 55 1012.1
20260507234539 53 306 2.6 4.3 0.00 0.00 0.00 53 1011.9
20260507233054 53 286 0.9 5.2 0.00 0.00 0.00 53 1011.9
20260507231539 54 277 3.5 7.0 0.00 0.00 0.00 52 1011.8
20260507230037 55 274 4.3 7.8 0.00 0.00 0.00 49 1011.9
20260507224541 55 331 3.5 9.6 0.00 0.00 0.00 51 1011.8
20260507223037 55 158 2.6 7.0 0.00 0.00 0.00 52 1011.8
20260507221537 56 300 5.2 8.7 0.00 0.00 0.00 51 1011.7
20260507220035 56 272 4.3 8.7 0.00 0.00 0.00 50 1011.4
20260507214536 57 299 3.5 7.8 0.00 0.00 0.00 48 1011.2
20260507213039 57 281 1.7 8.7 0.00 0.00 0.00 49 1011.0
20260507211534 57 346 4.3 9.6 0.00 0.00 0.00 48 1010.7
20260507210040 57 273 3.5 7.0 0.00 0.00 0.00 49 1010.9
20260507204533 58 286 3.5 6.1 0.00 0.00 0.00 49 1010.6
20260507203034 57 317 4.3 11.3 0.00 0.00 0.00 47 1010.7
20260507201529 58 283 3.5 8.7 0.00 0.00 0.00 47 1010.8
20260507200028 59 279 2.6 6.1 0.00 0.00 0.00 48 1011.0
20260507194550 59 321 3.5 9.6 0.00 0.00 0.00 48 1011.1
20260507193029 59 306 3.5 6.1 0.00 0.00 0.00 47 1011.2
20260507191532 59 283 5.2 9.6 0.00 0.00 0.00 46 1011.3
20260507190028 59 218 5.2 9.6 0.00 0.00 0.00 47 1011.3
20260507184533 59 252 4.3 13.0 0.00 0.00 0.00 47 1011.1
20260507183035 58 302 3.5 7.8 0.00 0.00 0.00 49 1011.2
20260507181521 58 221 4.3 8.7 0.00 0.00 0.00 48 1011.3
20260507180029 59 281 4.3 7.8 0.00 0.00 0.00 50 1011.5
20260507174517 58 261 4.3 10.4 0.00 0.00 0.00 51 1011.6
20260507173020 56 232 3.5 7.0 0.00 0.00 0.00 53 1011.8
20260507171520 56 264 3.5 6.1 0.00 0.00 0.00 52 1011.9
20260507170009 57 270 2.6 7.0 0.00 0.00 0.00 50 1012.0
20260507164508 56 220 5.2 13.0 0.00 0.00 0.00 54 1012.0
20260507163011 56 242 5.2 7.8 0.00 0.00 0.00 52 1012.0
20260507161506 55 219 4.3 7.8 0.00 0.00 0.00 56 1012.0
20260507160005 57 228 7.0 11.3 0.00 0.00 0.00 56 1012.1
20260507154504 55 236 2.6 7.0 0.00 0.00 0.00 56 1012.2
20260507153001 56 265 2.6 6.1 0.00 0.00 0.00 59 1012.3
20260507151601 55 223 3.5 9.6 0.00 0.00 0.00 59 1012.5
20260507150101 55 250 2.6 6.1 0.00 0.00 0.00 59 1012.6
20260507144557 54 253 3.5 8.7 0.00 0.00 0.00 65 1012.7
20260507143049 53 266 2.6 6.1 0.00 0.00 0.00 64 1012.8
20260507141607 52 231 4.3 8.7 0.00 0.00 0.00 66 1013.0
20260507140048 52 205 4.3 7.8 0.00 0.00 0.00 69 1013.1
20260507134545 52 198 4.3 7.8 0.00 0.00 0.00 71 1013.2
20260507133042 51 204 3.5 8.7 0.00 0.00 0.00 74 1013.3
20260507131539 50 195 3.5 7.0 0.00 0.00 0.00 76 1013.4
20260507130038 49 238 4.3 7.8 0.00 0.00 0.00 77 1013.4
20260507124533 49 200 4.3 7.8 0.00 0.01 0.00 79 1013.4
20260507123038 47 202 3.5 7.8 0.00 0.01 0.00 81 1013.4
20260507121528 46 215 2.6 6.1 0.00 0.01 0.00 83 1013.4
20260507120039 44 237 1.7 3.5 0.00 0.01 0.00 88 1013.3
20260507114527 42 243 1.7 3.5 0.00 0.01 0.00 91 1013.4
20260507113038 41 333 0.0 0.0 0.00 0.01 0.00 94 1013.4
20260507111526 39 333 0.0 0.0 0.00 0.01 0.00 95 1013.2
20260507110030 38 333 0.0 0.0 0.00 0.01 0.00 95 1013.1
20260507104525 37 333 0.0 0.0 0.00 0.04 0.00 94 1013.1
20260507103023 37 333 0.0 0.0 0.00 0.04 0.00 94 1013.1
20260507101522 37 333 0.0 0.0 0.00 0.04 0.00 93 1012.9
20260507100030 38 333 0.0 0.0 0.00 0.04 0.00 94 1012.8
20260507094519 38 333 0.0 0.0 0.00 0.08 0.00 94 1012.7
20260507093018 38 333 0.0 0.0 0.00 0.08 0.00 94 1012.8
20260507091521 38 333 0.0 0.0 0.00 0.08 0.00 94 1012.8
20260507090016 38 333 0.0 0.0 0.00 0.08 0.00 93 1012.9
20260507084514 38 333 0.0 0.0 0.00 0.14 0.00 93 1012.8
20260507083014 39 333 0.0 0.0 0.00 0.14 0.00 92 1012.9
20260507081513 39 333 0.0 0.0 0.00 0.14 0.00 93 1012.9
20260507080012 39 333 0.0 0.0 0.00 0.14 0.00 92 1013.0
20260507074513 39 333 0.0 0.0 0.00 0.18 0.00 92 1013.0
20260507073009 39 333 0.0 0.0 0.00 0.18 0.00 91 1013.0
20260507071506 39 333 0.0 0.0 0.00 0.18 0.00 90 1013.0
20260507070009 40 333 0.0 0.0 0.00 0.18 0.00 89 1012.9
20260507064502 41 333 0.0 0.0 0.00 0.22 0.00 89 1013.1
20260507063117 41 333 0.0 0.0 0.00 0.22 0.00 90 1013.2
20260507061558 41 333 0.0 0.0 0.00 0.22 0.00 88 1013.3
20260507060054 42 333 0.0 0.0 0.00 0.22 0.00 87 1013.4